Mosby, MO

4:27 PM CST on November 13, 2019 (GMT -0600)
Clay County Regional

Weather History for KGPH - August, 2019

Change the Weather History Date:

Tuesday, August 27, 2019

  Actual Average (KMKC) Record (KMKC)
Temperature  
Mean Temperature 70 °F -  
Max Temperature 80 °F 86 °F 98 °F (2007)
Min Temperature 60 °F 67 °F 66 °F (1999)
Cooling Degree Days 5    
Growing Degree Days 20 (Base 50)    
Moisture  
Dew Point 58 °F    
Average Humidity 74    
Maximum Humidity 100    
Minimum Humidity 34    
Precipitation  
Precipitation 0.00 in - - ()
Sea Level Pressure  
Sea Level Pressure 29.98 in    
Wind  
Wind Speed 2 mph ()    
Max Wind Speed 15 mph    
Max Gust Speed 24 mph    
Visibility 6.6 miles    
Events Fog    
Averages and records for this station are not official NWS values.
T = Trace of Precipitation, MM = Missing Value Source: Averaged Metar Reports

Daily Weather History Graph

Daily Weather History Graph

Search for Another Location

Airport or City:

Astronomy

Aug. 27, 2019 Rise Set
Actual Time 6:40 AM CDT 7:55 PM CDT
Civil Twilight 6:13 AM CDT 8:23 PM CDT
Nautical Twilight 5:39 AM CDT 8:56 PM CDT
Astronomical Twilight 5:04 AM CDT 9:31 PM CDT
Moon 3:07 AM CDT (8/27) 6:16 PM CDT (8/27)
Length of Visible Light 14h 10m
Length of Day
13h 14m
Waning Crescent, 11% of the Moon is Illuminated
Aug 27
Waning Crescent
Aug 30
New
Sep 5
First Quarter
Sep 13
Full
Sep 21
Last Quarter

Hourly Weather History & Observations

Time (CDT) Temp. Heat Index Dew Point Humidity Pressure Visibility Wind Dir Wind Speed Gust Speed Precip Events Conditions
12:15 AM 66.2 °F - 64.4 °F 94% 29.87 in 10.0 mi Calm Calm - N/A   Scattered Clouds
12:35 AM 66.2 °F - 64.4 °F 94% 29.89 in 10.0 mi Calm Calm - N/A   Scattered Clouds
12:55 AM 66.2 °F - 64.4 °F 94% 29.88 in 3.0 mi Calm Calm - N/A   Scattered Clouds
1:15 AM 66.2 °F - 64.4 °F 94% 29.89 in 10.0 mi Calm Calm - N/A   Scattered Clouds
1:35 AM 66.2 °F - 64.4 °F 94% 29.87 in 10.0 mi Calm Calm - N/A   Clear
1:55 AM 64.4 °F - 64.4 °F 100% 29.88 in 0.5 mi Calm Calm - N/A Fog Fog
2:15 AM 64.4 °F - 62.6 °F 94% 29.90 in 4.0 mi Calm Calm - N/A   Mostly Cloudy
2:55 AM 64.4 °F - 62.6 °F 94% 29.92 in 1.0 mi Calm Calm - N/A   Overcast
3:15 AM 64.4 °F - 62.6 °F 94% 29.93 in 10.0 mi Calm Calm - N/A   Scattered Clouds
3:35 AM 64.4 °F - 62.6 °F 94% 29.93 in 1.2 mi Calm Calm - N/A   Scattered Clouds
3:55 AM 62.6 °F - 62.6 °F 100% 29.93 in 1.5 mi Calm Calm - N/A   Overcast
4:15 AM 62.6 °F - 62.6 °F 100% 29.93 in 0.8 mi Calm Calm - N/A   Overcast
4:35 AM 62.6 °F - 62.6 °F 100% 29.93 in 1.0 mi Calm Calm - N/A   Overcast
4:55 AM 62.6 °F - 62.6 °F 100% 29.92 in 2.5 mi Calm Calm - N/A   Mostly Cloudy
5:15 AM 62.6 °F - 62.6 °F 100% 29.92 in 2.0 mi Calm Calm - N/A   Scattered Clouds
5:35 AM 64.4 °F - 62.6 °F 94% 29.92 in 1.0 mi Calm Calm - N/A   Mostly Cloudy
5:55 AM 62.6 °F - 62.6 °F 100% 29.93 in 1.2 mi Calm Calm - N/A   Scattered Clouds
6:15 AM 62.6 °F - 60.8 °F 94% 29.94 in 0.5 mi Calm Calm - N/A Fog Fog
6:35 AM 60.8 °F - 60.8 °F 100% 29.94 in 0.2 mi Calm Calm - N/A Fog Fog
6:55 AM 62.6 °F - 62.6 °F 100% 29.95 in 7.0 mi Calm Calm - N/A   Scattered Clouds
7:15 AM 60.8 °F - 60.8 °F 100% 29.96 in 0.2 mi Calm Calm - N/A Fog Fog
7:35 AM 60.8 °F - 60.8 °F 100% 29.97 in 0.2 mi Calm Calm - N/A Fog Fog
7:55 AM 60.8 °F - 59.0 °F 94% 29.98 in 0.2 mi Calm Calm - N/A Fog Fog
8:15 AM 60.8 °F - 60.8 °F 100% 29.99 in 2.5 mi Calm Calm - N/A   Mostly Cloudy
1:55 PM 77.0 °F - 55.4 °F 47% 30.02 in 10.0 mi NNW 9.2 mph - N/A   Unknown
2:15 PM 78.8 °F - 55.4 °F 44% 30.02 in 10.0 mi Calm Calm - N/A   Clear
2:35 PM 78.8 °F - 53.6 °F 42% 30.03 in 10.0 mi WNW 12.7 mph 17.3 mph N/A   Clear
2:55 PM 78.8 °F - 55.4 °F 44% 30.03 in 10.0 mi WNW 6.9 mph - N/A   Clear
3:15 PM 78.8 °F - 53.6 °F 42% 30.03 in 10.0 mi WNW 8.1 mph 17.3 mph N/A   Clear
3:35 PM 78.8 °F - 55.4 °F 44% 30.03 in 10.0 mi NW 11.5 mph 19.6 mph N/A   Clear
3:55 PM 78.8 °F - 53.6 °F 42% 30.03 in 10.0 mi NW 11.5 mph 18.4 mph N/A   Clear
4:35 PM 78.8 °F - 53.6 °F 42% 30.02 in 10.0 mi NW 10.4 mph 23.0 mph N/A   Clear
4:55 PM 80.6 °F 80.5 °F 55.4 °F 42% 30.03 in 10.0 mi NW 11.5 mph 21.9 mph N/A   Clear
5:15 PM 78.8 °F - 51.8 °F 39% 30.03 in 10.0 mi NW 15.0 mph 24.2 mph N/A   Clear
5:35 PM 78.8 °F - 51.8 °F 39% 30.03 in 10.0 mi NNW 15.0 mph 21.9 mph N/A   Clear
6:15 PM 78.8 °F - 48.2 °F 34% 30.03 in 10.0 mi NW 10.4 mph 18.4 mph N/A   Clear
7:35 PM 75.2 °F - 50.0 °F 41% 30.03 in 10.0 mi West 4.6 mph - N/A   Clear
7:55 PM 73.4 °F - 51.8 °F 47% 30.02 in 10.0 mi Calm Calm - N/A   Clear
8:35 PM 71.6 °F - 53.6 °F 53% 30.02 in 10.0 mi Calm Calm - N/A   Clear
8:55 PM 69.8 °F - 53.6 °F 56% 30.03 in 10.0 mi Calm Calm - N/A   Clear
9:15 PM 69.8 °F - 53.6 °F 56% 30.03 in 10.0 mi Calm Calm - N/A   Clear
9:35 PM 69.8 °F - 53.6 °F 56% 30.04 in 10.0 mi NNW 5.8 mph - N/A   Scattered Clouds
10:15 PM 68.0 °F - 55.4 °F 64% 30.04 in 10.0 mi Calm Calm - N/A   Mostly Cloudy
10:35 PM 68.0 °F - 55.4 °F 64% 30.05 in 10.0 mi Calm Calm - N/A   Scattered Clouds
10:55 PM 68.0 °F - 55.4 °F 64% 30.05 in 10.0 mi Calm Calm - N/A   Clear
11:15 PM 68.0 °F - 55.4 °F 64% 30.07 in 10.0 mi Calm Calm - N/A   Scattered Clouds
11:55 PM 66.2 °F - 55.4 °F 68% 30.07 in 10.0 mi Calm Calm - N/A   Clear